Fresno, CA

2:23 AM PDT on May 28, 2017 (GMT -0700)
Fresno Yosemite International

Weather History for KFAT - August, 2013

Change the Weather History Date:

Monday, August 12, 2013

  Actual Average Record
Temperature  
Mean Temperature 82 °F 82 °F  
Max Temperature 97 °F 98 °F 110 °F (1933)
Min Temperature 66 °F 67 °F 55 °F (1916)
Degree Days  
Heating Degree Days 0    
Month to date heating degree days 0  
Since 1 June heating degree days 0  
Since 1 July heating degree days 0  
Cooling Degree Days 17    
Month to date cooling degree days 175  
Year to date cooling degree days 1756  
Since 1 June cooling degree days 1349  
Growing Degree Days 32 (Base 50)    
Moisture  
Dew Point 49 °F    
Average Humidity 40    
Maximum Humidity 63    
Minimum Humidity 17    
Precipitation  
Precipitation 0.00 in 0.00 in 0.00 in (2017)
Month to date precipitation 0.00 0.00  
Year to date precipitation 2.28 7.85  
Since 1 July precipitation T  
Snow  
Snow 0.00 in - - ()
Month to date snowfall 0.0  
Since 1 June snowfall 0.0  
Since 1 July snowfall 0.0  
Snow Depth 0.00 in    
Sea Level Pressure  
Sea Level Pressure 29.90 in    
Wind  
Wind Speed 6 mph (NW)    
Max Wind Speed 13 mph    
Max Gust Speed 18 mph    
Visibility 10 miles    
Events      
T = Trace of Precipitation, MM = Missing Value Source: NWS Daily Summary

Daily Weather History Graph

Daily Weather History Graph

Search for Another Location

Airport or City:

Trip Planner

Search our weather history database for the weather conditions in past years. The results will help you decide how hot, cold, wet, or windy it might be!

Date:

Astronomy

Aug. 12, 2013 Rise Set
Actual Time 6:13 AM PDT 7:53 PM PDT
Civil Twilight 5:46 AM PDT 8:20 PM PDT
Nautical Twilight 5:12 AM PDT 8:54 PM PDT
Astronomical Twilight 4:37 AM PDT 9:29 PM PDT
Moon 11:59 AM PDT (8/12) 11:00 PM PDT (8/12)
Length of Visible Light 14h 34m
Length of Day
13h 39m
Waxing Crescent, 32% of the Moon is Illuminated
Aug 12
Waxing Crescent
Aug 14
First Quarter
Aug 20
Full
Aug 28
Last Quarter
Sep 5
New

Hourly Weather History & Observations

Time (PDT) Temp. Dew Point Humidity Pressure Visibility Wind Dir Wind Speed Gust Speed Precip Events Conditions
12:53 AM 75.0 °F 54.0 °F 48% 29.90 in 10.0 mi WNW 11.5 mph - N/A   Clear
1:53 AM 73.0 °F 52.0 °F 48% 29.89 in 10.0 mi NW 9.2 mph - N/A   Clear
2:53 AM 72.0 °F 52.0 °F 49% 29.88 in 10.0 mi NW 6.9 mph - N/A   Clear
3:53 AM 69.1 °F 52.0 °F 54% 29.89 in 10.0 mi NW 6.9 mph - N/A   Clear
4:53 AM 66.9 °F 52.0 °F 59% 29.90 in 10.0 mi NW 6.9 mph - N/A   Clear
5:53 AM 66.0 °F 53.1 °F 63% 29.91 in 10.0 mi NW 8.1 mph - N/A   Partly Cloudy
6:53 AM 66.9 °F 52.0 °F 59% 29.93 in 10.0 mi NW 5.8 mph - N/A   Clear
7:53 AM 70.0 °F 51.1 °F 51% 29.94 in 10.0 mi NNW 4.6 mph - N/A   Clear
8:53 AM 77.0 °F 50.0 °F 39% 29.94 in 10.0 mi Calm Calm - N/A   Clear
9:53 AM 81.0 °F 51.1 °F 35% 29.94 in 10.0 mi South 3.5 mph - N/A   Clear
10:53 AM 84.0 °F 48.9 °F 29% 29.94 in 10.0 mi Calm Calm - N/A   Clear
11:53 AM 89.1 °F 48.9 °F 25% 29.94 in 10.0 mi NW 5.8 mph - N/A   Clear
12:53 PM 91.0 °F 46.9 °F 22% 29.92 in 10.0 mi Calm Calm - N/A   Clear
1:53 PM 93.9 °F 46.0 °F 19% 29.90 in 10.0 mi WNW 8.1 mph - N/A   Clear
2:53 PM 95.0 °F 46.9 °F 19% 29.89 in 10.0 mi WNW 4.6 mph - N/A   Partly Cloudy
3:53 PM 97.0 °F 46.9 °F 18% 29.87 in 10.0 mi North 8.1 mph - N/A   Partly Cloudy
4:53 PM 97.0 °F 45.0 °F 17% 29.86 in 10.0 mi NW 8.1 mph - N/A   Partly Cloudy
5:53 PM 96.1 °F 45.0 °F 17% 29.85 in 10.0 mi NNW 12.7 mph - N/A   Partly Cloudy
6:53 PM 95.0 °F 45.0 °F 18% 29.85 in 10.0 mi West 12.7 mph 17.3 mph N/A   Clear
7:53 PM 90.0 °F 46.0 °F 22% 29.86 in 10.0 mi WNW 10.4 mph - N/A   Clear
8:53 PM 87.1 °F 48.0 °F 26% 29.88 in 10.0 mi NW 10.4 mph - N/A   Clear
10:53 PM 81.0 °F 48.0 °F 31% 29.90 in 10.0 mi NW 10.4 mph - N/A   Clear
11:53 PM 79.0 °F 48.9 °F 35% 29.91 in 10.0 mi WNW 11.5 mph - N/A   Clear